Time,TemperatureF,DewpointF,PressureIn,WindDirection,WindDirectionDegrees,WindSpeedMPH,WindSpeedGustMPH,Humidity,HourlyPrecipIn,Conditions,Clouds,dailyrainin,SoftwareType,DateUTC
2013-06-29 00:04:00,67.3,63.9,29.59,West,269,1.0,2.0,89,0.00,,,0.09,meteohub,2013-06-29 05:04:00,
2013-06-29 00:09:00,67.1,63.7,29.58,West,271,0.0,2.0,89,0.00,,,0.00,meteohub,2013-06-29 05:09:00,
2013-06-29 00:14:00,67.3,64.2,29.58,West,272,0.0,3.0,90,0.00,,,0.00,meteohub,2013-06-29 05:14:00,
2013-06-29 00:19:00,67.3,64.2,29.58,West,279,0.0,3.0,90,0.00,,,0.00,meteohub,2013-06-29 05:19:00,
2013-06-29 00:25:00,66.9,63.9,29.58,WNW,292,0.0,3.0,90,0.00,,,0.00,meteohub,2013-06-29 05:25:00,
2013-06-29 00:30:00,66.9,63.9,29.58,NW,308,3.0,3.0,90,0.00,,,0.00,meteohub,2013-06-29 05:30:00,
2013-06-29 00:35:00,66.9,63.9,29.58,NW,306,2.0,2.0,90,0.00,,,0.00,meteohub,2013-06-29 05:35:00,
2013-06-29 00:40:00,66.9,63.9,29.58,NNW,333,10.0,10.0,90,0.00,,,0.00,meteohub,2013-06-29 05:40:00,
2013-06-29 00:45:00,67.6,64.2,29.58,NW,316,13.0,13.0,89,0.00,,,0.00,meteohub,2013-06-29 05:45:00,
2013-06-29 00:50:00,67.8,64.2,29.58,NW,318,7.0,13.0,88,0.00,,,0.00,meteohub,2013-06-29 05:50:00,
2013-06-29 00:55:00,67.5,64.0,29.57,NW,304,8.0,18.0,89,0.00,,,0.01,meteohub,2013-06-29 05:55:00,
2013-06-29 01:00:00,67.5,64.4,29.57,NW,309,5.0,18.0,90,0.01,,,0.01,meteohub,2013-06-29 06:00:00,
2013-06-29 01:05:00,67.6,64.6,29.57,NW,315,4.0,15.0,90,0.01,,,0.01,meteohub,2013-06-29 06:05:00,
2013-06-29 01:10:00,67.6,64.2,29.57,NW,323,3.0,14.0,89,0.01,,,0.01,meteohub,2013-06-29 06:10:00,
2013-06-29 01:15:00,67.6,64.2,29.57,NW,311,5.0,11.0,89,0.01,,,0.01,meteohub,2013-06-29 06:15:00,
2013-06-29 01:20:00,67.5,64.0,29.57,WNW,300,9.0,9.0,89,0.01,,,0.01,meteohub,2013-06-29 06:20:00,
2013-06-29 01:25:00,67.5,64.4,29.57,NW,305,4.0,10.0,90,0.01,,,0.01,meteohub,2013-06-29 06:25:00,
2013-06-29 01:30:00,67.5,64.0,29.57,NW,326,2.0,10.0,89,0.01,,,0.01,meteohub,2013-06-29 06:30:00,
2013-06-29 01:35:00,67.6,64.2,29.57,NNW,329,4.0,7.0,89,0.01,,,0.01,meteohub,2013-06-29 06:35:00,
2013-06-29 01:40:00,67.5,64.0,29.57,NW,311,2.0,7.0,89,0.01,,,0.01,meteohub,2013-06-29 06:40:00,
2013-06-29 01:45:00,67.5,64.0,29.57,NW,311,4.0,7.0,89,0.01,,,0.01,meteohub,2013-06-29 06:45:00,
2013-06-29 01:50:00,67.5,64.0,29.57,NW,323,3.0,7.0,89,0.01,,,0.01,meteohub,2013-06-29 06:50:00,
2013-06-29 01:55:00,67.5,64.0,29.57,NW,304,4.0,7.0,89,0.01,,,0.02,meteohub,2013-06-29 06:55:00,
2013-06-29 02:01:00,67.3,63.9,29.57,WNW,298,1.0,7.0,89,0.01,,,0.02,meteohub,2013-06-29 07:01:00,
2013-06-29 02:06:00,67.3,63.7,29.57,NNW,327,0.0,7.0,88,0.01,,,0.02,meteohub,2013-06-29 07:06:00,
2013-06-29 02:11:00,67.3,63.7,29.57,NW,306,0.0,7.0,88,0.01,,,0.02,meteohub,2013-06-29 07:11:00,
2013-06-29 02:16:00,67.6,64.0,29.57,WNW,286,0.0,7.0,88,0.01,,,0.02,meteohub,2013-06-29 07:16:00,
2013-06-29 02:21:00,67.3,63.7,29.57,West,275,0.0,4.0,88,0.01,,,0.02,meteohub,2013-06-29 07:21:00,
2013-06-29 02:26:00,66.9,63.3,29.57,NW,305,2.0,4.0,88,0.01,,,0.02,meteohub,2013-06-29 07:26:00,
2013-06-29 02:31:00,66.7,63.3,29.57,WNW,291,0.0,4.0,89,0.01,,,0.02,meteohub,2013-06-29 07:31:00,
2013-06-29 02:36:00,66.6,63.1,29.57,NW,311,0.0,4.0,89,0.01,,,0.02,meteohub,2013-06-29 07:36:00,
2013-06-29 02:41:00,66.6,63.5,29.57,WNW,293,0.0,4.0,90,0.01,,,0.02,meteohub,2013-06-29 07:41:00,
2013-06-29 02:46:00,66.4,63.3,29.57,WNW,296,0.0,5.0,90,0.01,,,0.02,meteohub,2013-06-29 07:46:00,
2013-06-29 02:51:00,66.4,63.3,29.57,NW,313,0.0,5.0,90,0.01,,,0.02,meteohub,2013-06-29 07:51:00,
2013-06-29 02:56:00,66.2,63.1,29.57,WNW,296,1.0,5.0,90,0.00,,,0.02,meteohub,2013-06-29 07:56:00,
2013-06-29 03:01:00,66.0,63.0,29.57,West,275,0.0,4.0,90,0.00,,,0.02,meteohub,2013-06-29 08:01:00,
2013-06-29 03:06:00,66.0,63.0,29.56,West,280,0.0,4.0,90,0.00,,,0.02,meteohub,2013-06-29 08:06:00,
2013-06-29 03:11:00,66.0,63.0,29.57,West,280,0.0,4.0,90,0.00,,,0.02,meteohub,2013-06-29 08:11:00,
2013-06-29 03:16:00,66.2,63.1,29.57,West,279,0.0,2.0,90,0.00,,,0.02,meteohub,2013-06-29 08:16:00,
2013-06-29 03:21:00,66.4,63.3,29.57,West,271,0.0,2.0,90,0.00,,,0.02,meteohub,2013-06-29 08:21:00,
2013-06-29 03:26:00,66.6,63.1,29.57,West,270,0.0,2.0,89,0.00,,,0.02,meteohub,2013-06-29 08:26:00,
2013-06-29 03:32:00,66.6,63.1,29.57,WSW,252,0.0,2.0,89,0.00,,,0.02,meteohub,2013-06-29 08:32:00,
2013-06-29 03:37:00,66.4,63.0,29.57,West,261,0.0,2.0,89,0.00,,,0.02,meteohub,2013-06-29 08:37:00,
2013-06-29 03:42:00,66.0,63.0,29.57,West,266,0.0,2.0,90,0.00,,,0.02,meteohub,2013-06-29 08:42:00,
2013-06-29 03:47:00,66.2,63.1,29.57,West,262,1.0,1.0,90,0.00,,,0.02,meteohub,2013-06-29 08:47:00,
2013-06-29 03:52:00,66.6,63.1,29.57,WSW,252,0.0,2.0,89,0.00,,,0.02,meteohub,2013-06-29 08:52:00,
2013-06-29 03:57:00,66.4,63.0,29.57,WSW,254,0.0,2.0,89,0.00,,,0.02,meteohub,2013-06-29 08:57:00,
2013-06-29 03:59:00,66.2,62.8,29.57,WSW,255,0.0,2.0,89,0.00,,,0.02,meteohub,2013-06-29 08:59:00,
2013-06-29 04:04:00,65.8,62.4,29.57,West,259,1.0,2.0,89,0.00,,,0.02,meteohub,2013-06-29 09:04:00,
2013-06-29 04:09:00,65.7,62.6,29.57,SW,223,0.0,2.0,90,0.00,,,0.02,meteohub,2013-06-29 09:09:00,
2013-06-29 04:14:00,65.7,63.0,29.57,WSW,244,2.0,2.0,91,0.00,,,0.02,meteohub,2013-06-29 09:14:00,
2013-06-29 04:19:00,65.7,62.6,29.57,WSW,249,0.0,1.0,90,0.00,,,0.02,meteohub,2013-06-29 09:19:00,
2013-06-29 04:24:00,65.5,62.4,29.57,WSW,252,1.0,2.0,90,0.00,,,0.02,meteohub,2013-06-29 09:24:00,
2013-06-29 04:29:00,65.3,62.6,29.57,WSW,254,0.0,3.0,91,0.00,,,0.02,meteohub,2013-06-29 09:29:00,
2013-06-29 04:34:00,65.1,62.4,29.57,WSW,254,0.0,3.0,91,0.00,,,0.02,meteohub,2013-06-29 09:34:00,
2013-06-29 04:39:00,64.9,62.6,29.57,West,270,3.0,3.0,92,0.00,,,0.02,meteohub,2013-06-29 09:39:00,
2013-06-29 04:44:00,64.9,62.6,29.57,NW,304,0.0,2.0,92,0.00,,,0.02,meteohub,2013-06-29 09:44:00,
2013-06-29 04:49:00,65.1,62.8,29.57,West,281,0.0,4.0,92,0.00,,,0.02,meteohub,2013-06-29 09:49:00,
2013-06-29 04:54:00,65.7,63.0,29.57,West,279,2.0,4.0,91,0.00,,,0.02,meteohub,2013-06-29 09:54:00,
2013-06-29 05:00:00,65.8,62.8,29.57,West,278,0.0,3.0,90,0.00,,,0.02,meteohub,2013-06-29 10:00:00,
2013-06-29 05:05:00,65.7,62.6,29.57,WNW,282,2.0,2.0,90,0.00,,,0.02,meteohub,2013-06-29 10:05:00,
2013-06-29 05:10:00,65.3,62.2,29.57,WNW,285,1.0,2.0,90,0.00,,,0.02,meteohub,2013-06-29 10:10:00,
2013-06-29 05:15:00,64.9,62.2,29.57,WNW,288,0.0,4.0,91,0.00,,,0.02,meteohub,2013-06-29 10:15:00,
2013-06-29 05:20:00,64.9,62.2,29.57,WNW,284,0.0,4.0,91,0.00,,,0.02,meteohub,2013-06-29 10:20:00,
2013-06-29 05:25:00,64.9,62.2,29.57,WNW,284,0.0,4.0,91,0.00,,,0.02,meteohub,2013-06-29 10:25:00,
2013-06-29 05:30:00,64.8,62.1,29.57,WNW,284,0.0,4.0,91,0.00,,,0.02,meteohub,2013-06-29 10:30:00,
2013-06-29 05:35:00,64.8,62.4,29.58,WNW,283,0.0,4.0,92,0.00,,,0.02,meteohub,2013-06-29 10:35:00,
2013-06-29 05:40:00,64.8,62.4,29.58,WNW,284,0.0,2.0,92,0.00,,,0.02,meteohub,2013-06-29 10:40:00,
2013-06-29 05:45:00,64.8,62.4,29.58,WNW,284,1.0,2.0,92,0.00,,,0.02,meteohub,2013-06-29 10:45:00,
2013-06-29 05:50:00,64.8,62.4,29.58,WNW,286,0.0,3.0,92,0.00,,,0.02,meteohub,2013-06-29 10:50:00,
2013-06-29 05:55:00,64.9,62.6,29.58,West,273,3.0,3.0,92,0.00,,,0.02,meteohub,2013-06-29 10:55:00,
2013-06-29 06:00:00,64.9,62.6,29.58,West,273,1.0,5.0,92,0.00,,,0.02,meteohub,2013-06-29 11:00:00,
2013-06-29 06:05:00,64.9,62.2,29.58,West,277,0.0,5.0,91,0.00,,,0.02,meteohub,2013-06-29 11:05:00,
2013-06-29 06:10:00,65.1,62.4,29.58,West,280,0.0,5.0,91,0.00,,,0.02,meteohub,2013-06-29 11:10:00,
2013-06-29 06:15:00,65.5,62.8,29.58,West,277,0.0,5.0,91,0.00,,,0.02,meteohub,2013-06-29 11:15:00,
2013-06-29 06:20:00,65.7,62.6,29.58,West,277,0.0,5.0,90,0.00,,,0.02,meteohub,2013-06-29 11:20:00,
2013-06-29 06:26:00,65.7,62.6,29.58,West,271,0.0,2.0,90,0.00,,,0.02,meteohub,2013-06-29 11:26:00,
2013-06-29 06:31:00,65.7,62.6,29.58,NW,319,0.0,6.0,90,0.00,,,0.02,meteohub,2013-06-29 11:31:00,
2013-06-29 06:36:00,65.7,62.6,29.58,WNW,291,0.0,6.0,90,0.00,,,0.02,meteohub,2013-06-29 11:36:00,
2013-06-29 06:41:00,65.7,62.6,29.58,WNW,293,0.0,6.0,90,0.00,,,0.02,meteohub,2013-06-29 11:41:00,
2013-06-29 06:46:00,65.7,62.6,29.58,WNW,292,1.0,3.0,90,0.00,,,0.02,meteohub,2013-06-29 11:46:00,
2013-06-29 06:51:00,65.8,62.8,29.57,NW,312,1.0,5.0,90,0.00,,,0.02,meteohub,2013-06-29 11:51:00,
2013-06-29 06:56:00,65.7,62.6,29.57,NW,325,5.0,5.0,90,0.00,,,0.02,meteohub,2013-06-29 11:56:00,
2013-06-29 07:01:00,65.7,62.6,29.57,NNW,338,1.0,5.0,90,0.00,,,0.02,meteohub,2013-06-29 12:01:00,
2013-06-29 07:06:00,65.7,62.6,29.57,NNW,330,0.0,6.0,90,0.00,,,0.02,meteohub,2013-06-29 12:06:00,
2013-06-29 07:11:00,65.7,62.6,29.58,NW,310,4.0,6.0,90,0.00,,,0.02,meteohub,2013-06-29 12:11:00,
2013-06-29 07:16:00,65.7,62.6,29.58,NW,317,1.0,6.0,90,0.00,,,0.02,meteohub,2013-06-29 12:16:00,
2013-06-29 07:21:00,65.7,62.6,29.58,NW,307,2.0,8.0,90,0.00,,,0.02,meteohub,2013-06-29 12:21:00,
2013-06-29 07:26:00,65.8,62.8,29.58,NW,317,0.0,8.0,90,0.00,,,0.02,meteohub,2013-06-29 12:26:00,
2013-06-29 07:31:00,66.0,63.0,29.59,NW,320,5.0,8.0,90,0.00,,,0.02,meteohub,2013-06-29 12:31:00,
2013-06-29 07:36:00,66.2,63.1,29.59,NW,305,0.0,8.0,90,0.00,,,0.02,meteohub,2013-06-29 12:36:00,
2013-06-29 07:41:00,66.4,63.3,29.59,NW,324,4.0,6.0,90,0.00,,,0.02,meteohub,2013-06-29 12:41:00,
2013-06-29 07:47:00,66.2,63.1,29.58,NW,310,3.0,6.0,90,0.00,,,0.02,meteohub,2013-06-29 12:47:00,
2013-06-29 07:52:00,66.4,63.3,29.59,NW,317,1.0,7.0,90,0.00,,,0.02,meteohub,2013-06-29 12:52:00,
2013-06-29 07:57:00,66.6,63.5,29.59,NW,307,3.0,7.0,90,0.00,,,0.02,meteohub,2013-06-29 12:57:00,
2013-06-29 08:02:00,66.7,63.7,29.59,NW,326,5.0,5.0,90,0.00,,,0.02,meteohub,2013-06-29 13:02:00,
2013-06-29 08:07:00,66.9,63.5,29.59,NNW,347,3.0,6.0,89,0.00,,,0.02,meteohub,2013-06-29 13:07:00,
2013-06-29 08:12:00,66.9,63.5,29.60,NNW,327,0.0,7.0,89,0.00,,,0.02,meteohub,2013-06-29 13:12:00,
2013-06-29 08:17:00,66.9,63.5,29.60,NW,321,0.0,7.0,89,0.00,,,0.02,meteohub,2013-06-29 13:17:00,
2013-06-29 08:22:00,67.1,63.7,29.60,NW,315,4.0,7.0,89,0.00,,,0.02,meteohub,2013-06-29 13:22:00,
2013-06-29 08:27:00,67.3,63.9,29.59,NW,306,2.0,6.0,89,0.00,,,0.02,meteohub,2013-06-29 13:27:00,
2013-06-29 08:32:00,67.5,64.0,29.59,NNW,327,2.0,6.0,89,0.00,,,0.02,meteohub,2013-06-29 13:32:00,
2013-06-29 08:37:00,67.8,64.4,29.59,NNE,12,0.0,6.0,89,0.00,,,0.02,meteohub,2013-06-29 13:37:00,
2013-06-29 08:42:00,68.2,64.4,29.59,NW,317,4.0,5.0,88,0.00,,,0.02,meteohub,2013-06-29 13:42:00,
2013-06-29 08:47:00,68.2,64.4,29.59,NNW,327,2.0,5.0,88,0.00,,,0.02,meteohub,2013-06-29 13:47:00,
2013-06-29 08:52:00,68.4,64.6,29.59,North,5,0.0,6.0,88,0.00,,,0.02,meteohub,2013-06-29 13:52:00,
2013-06-29 08:57:00,68.5,64.6,29.59,NNW,344,2.0,6.0,87,0.00,,,0.02,meteohub,2013-06-29 13:57:00,
2013-06-29 09:02:00,68.7,64.9,29.59,NNW,344,2.0,6.0,88,0.00,,,0.02,meteohub,2013-06-29 14:02:00,
2013-06-29 09:07:00,69.3,64.9,29.59,North,11,1.0,7.0,86,0.00,,,0.02,meteohub,2013-06-29 14:07:00,
2013-06-29 09:12:00,69.4,65.1,29.59,NNW,329,5.0,7.0,86,0.00,,,0.02,meteohub,2013-06-29 14:12:00,
2013-06-29 09:17:00,69.6,65.3,29.59,NNW,340,4.0,7.0,86,0.00,,,0.02,meteohub,2013-06-29 14:17:00,
2013-06-29 09:22:00,69.6,64.9,29.59,North,355,1.0,8.0,85,0.00,,,0.02,meteohub,2013-06-29 14:22:00,
2013-06-29 09:27:00,70.0,65.3,29.58,NW,308,5.0,8.0,85,0.00,,,0.02,meteohub,2013-06-29 14:27:00,
2013-06-29 09:32:00,69.6,64.6,29.58,WNW,298,0.0,8.0,84,0.00,,,0.02,meteohub,2013-06-29 14:32:00,
2013-06-29 09:37:00,69.8,65.1,29.58,North,5,1.0,8.0,85,0.00,,,0.02,meteohub,2013-06-29 14:37:00,
2013-06-29 09:42:00,70.0,64.9,29.58,NNW,338,2.0,8.0,84,0.00,,,0.02,meteohub,2013-06-29 14:42:00,
2013-06-29 09:47:00,70.0,64.9,29.58,North,0,2.0,7.0,84,0.00,,,0.02,meteohub,2013-06-29 14:47:00,
2013-06-29 09:52:00,70.2,64.8,29.58,NNW,332,11.0,11.0,83,0.00,,,0.02,meteohub,2013-06-29 14:52:00,
2013-06-29 09:57:00,70.0,64.9,29.58,NNW,327,6.0,11.0,84,0.00,,,0.02,meteohub,2013-06-29 14:57:00,
2013-06-29 10:02:00,70.0,64.9,29.58,NNW,342,1.0,11.0,84,0.00,,,0.02,meteohub,2013-06-29 15:02:00,
2013-06-29 10:07:00,70.0,64.6,29.58,NW,313,5.0,11.0,83,0.00,,,0.02,meteohub,2013-06-29 15:07:00,
2013-06-29 10:12:00,70.2,64.8,29.58,NNW,330,3.0,9.0,83,0.00,,,0.02,meteohub,2013-06-29 15:12:00,
2013-06-29 10:17:00,70.3,64.6,29.58,NW,312,8.0,9.0,82,0.00,,,0.02,meteohub,2013-06-29 15:17:00,
2013-06-29 10:22:00,70.5,65.1,29.58,North,355,7.0,9.0,83,0.00,,,0.02,meteohub,2013-06-29 15:22:00,
2013-06-29 10:27:00,71.1,65.3,29.57,NNE,29,4.0,8.0,82,0.00,,,0.02,meteohub,2013-06-29 15:27:00,
2013-06-29 10:32:00,71.4,64.9,29.57,NNW,328,6.0,9.0,80,0.00,,,0.02,meteohub,2013-06-29 15:32:00,
2013-06-29 10:37:00,71.6,64.8,29.57,NW,326,6.0,9.0,79,0.00,,,0.02,meteohub,2013-06-29 15:37:00,
2013-06-29 10:42:00,72.0,65.1,29.57,NNW,336,8.0,9.0,79,0.00,,,0.02,meteohub,2013-06-29 15:42:00,
2013-06-29 10:47:00,72.3,65.5,29.57,NW,323,6.0,10.0,79,0.00,,,0.02,meteohub,2013-06-29 15:47:00,
2013-06-29 10:52:00,72.3,65.1,29.57,NNW,327,5.0,10.0,78,0.00,,,0.02,meteohub,2013-06-29 15:52:00,
2013-06-29 10:57:00,72.5,64.9,29.57,NW,313,5.0,10.0,77,0.00,,,0.02,meteohub,2013-06-29 15:57:00,
2013-06-29 11:02:00,72.5,64.9,29.57,NW,312,9.0,10.0,77,0.00,,,0.02,meteohub,2013-06-29 16:02:00,
2013-06-29 11:07:00,72.9,64.8,29.57,NW,315,9.0,9.0,76,0.00,,,0.02,meteohub,2013-06-29 16:07:00,
2013-06-29 11:12:00,73.0,64.6,29.57,WNW,302,1.0,12.0,75,0.00,,,0.02,meteohub,2013-06-29 16:12:00,
2013-06-29 11:17:00,73.8,65.3,29.57,WSW,250,4.0,12.0,75,0.00,,,0.02,meteohub,2013-06-29 16:17:00,
2013-06-29 11:22:00,73.8,64.9,29.57,NW,305,6.0,10.0,74,0.00,,,0.02,meteohub,2013-06-29 16:22:00,
2013-06-29 11:27:00,73.0,64.6,29.57,NW,323,4.0,9.0,75,0.00,,,0.02,meteohub,2013-06-29 16:27:00,
2013-06-29 11:32:00,73.0,64.6,29.57,WNW,286,4.0,9.0,75,0.00,,,0.02,meteohub,2013-06-29 16:32:00,
2013-06-29 11:37:00,72.7,64.8,29.57,WNW,300,4.0,9.0,76,0.00,,,0.02,meteohub,2013-06-29 16:37:00,
2013-06-29 11:42:00,72.9,64.4,29.57,NW,320,8.0,13.0,75,0.00,,,0.02,meteohub,2013-06-29 16:42:00,
2013-06-29 11:47:00,72.7,64.8,29.58,NW,312,10.0,13.0,76,0.00,,,0.02,meteohub,2013-06-29 16:47:00,
2013-06-29 11:52:00,72.5,64.6,29.58,NW,309,5.0,13.0,76,0.00,,,0.02,meteohub,2013-06-29 16:52:00,
2013-06-29 11:57:00,72.3,64.8,29.58,North,350,4.0,12.0,77,0.00,,,0.02,meteohub,2013-06-29 16:57:00,
2013-06-29 12:02:00,72.5,64.6,29.58,NNW,345,6.0,12.0,76,0.00,,,0.02,meteohub,2013-06-29 17:02:00,
2013-06-29 12:07:00,72.1,65.3,29.58,North,355,8.0,10.0,79,0.00,,,0.02,meteohub,2013-06-29 17:07:00,
2013-06-29 12:12:00,71.4,65.3,29.57,NE,38,1.0,10.0,81,0.00,,,0.02,meteohub,2013-06-29 17:12:00,
2013-06-29 12:17:00,71.2,65.5,29.57,NE,36,6.0,10.0,82,0.00,,,0.02,meteohub,2013-06-29 17:17:00,
2013-06-29 12:22:00,71.2,65.5,29.57,NNE,15,0.0,9.0,82,0.00,,,0.02,meteohub,2013-06-29 17:22:00,
2013-06-29 12:27:00,71.4,64.9,29.57,NE,42,2.0,8.0,80,0.00,,,0.02,meteohub,2013-06-29 17:27:00,
2013-06-29 12:32:00,71.8,65.3,29.57,NE,55,6.0,10.0,80,0.00,,,0.02,meteohub,2013-06-29 17:32:00,
2013-06-29 12:37:00,71.8,65.3,29.57,ENE,71,8.0,12.0,80,0.00,,,0.02,meteohub,2013-06-29 17:37:00,
2013-06-29 12:42:00,72.0,65.8,29.57,NW,323,5.0,12.0,81,0.00,,,0.02,meteohub,2013-06-29 17:42:00,
2013-06-29 12:47:00,72.3,64.8,29.57,NNW,338,3.0,12.0,77,0.00,,,0.02,meteohub,2013-06-29 17:47:00,
2013-06-29 12:52:00,72.9,64.8,29.57,NNE,22,4.0,12.0,76,0.00,,,0.02,meteohub,2013-06-29 17:52:00,
2013-06-29 12:57:00,73.0,64.2,29.57,ENE,62,7.0,12.0,74,0.00,,,0.02,meteohub,2013-06-29 17:57:00,
2013-06-29 13:02:00,72.3,64.4,29.58,North,0,7.0,12.0,76,0.00,,,0.02,meteohub,2013-06-29 18:02:00,
2013-06-29 13:07:00,72.0,64.4,29.59,North,11,2.0,11.0,77,0.00,,,0.02,meteohub,2013-06-29 18:07:00,
2013-06-29 13:12:00,71.4,64.2,29.58,North,5,6.0,11.0,78,0.00,,,0.02,meteohub,2013-06-29 18:12:00,
2013-06-29 13:17:00,70.3,65.7,29.58,NW,304,5.0,11.0,85,0.01,,,0.03,meteohub,2013-06-29 18:17:00,
2013-06-29 13:22:00,69.4,65.7,29.58,North,0,4.0,11.0,88,0.02,,,0.04,meteohub,2013-06-29 18:22:00,
2013-06-29 13:27:00,69.1,65.7,29.58,North,5,2.0,11.0,89,0.02,,,0.04,meteohub,2013-06-29 18:27:00,
2013-06-29 13:32:00,68.7,65.3,29.58,North,0,4.0,9.0,89,0.02,,,0.04,meteohub,2013-06-29 18:32:00,
2013-06-29 13:37:00,68.7,65.7,29.58,NNW,333,2.0,8.0,90,0.03,,,0.05,meteohub,2013-06-29 18:37:00,
2013-06-29 13:42:00,68.7,66.0,29.58,North,11,1.0,6.0,91,0.03,,,0.05,meteohub,2013-06-29 18:42:00,
2013-06-29 13:47:00,68.9,66.2,29.58,NNW,339,4.0,5.0,91,0.03,,,0.05,meteohub,2013-06-29 18:47:00,
2013-06-29 13:52:00,68.5,65.8,29.58,NNW,344,3.0,8.0,91,0.03,,,0.05,meteohub,2013-06-29 18:52:00,
2013-06-29 13:57:00,68.4,65.7,29.58,WNW,303,5.0,9.0,91,0.03,,,0.05,meteohub,2013-06-29 18:57:00,
2013-06-29 13:58:00,68.4,65.7,29.59,NNW,345,7.0,9.0,91,0.03,,,0.05,meteohub,2013-06-29 18:58:00,
2013-06-29 14:03:00,68.4,66.0,29.60,North,355,1.0,9.0,92,0.03,,,0.05,meteohub,2013-06-29 19:03:00,
2013-06-29 14:08:00,68.4,65.7,29.59,North,355,6.0,9.0,91,0.03,,,0.05,meteohub,2013-06-29 19:08:00,
2013-06-29 14:13:00,68.4,66.0,29.59,North,5,5.0,9.0,92,0.03,,,0.05,meteohub,2013-06-29 19:13:00,
2013-06-29 14:18:00,68.5,65.8,29.59,NE,39,5.0,8.0,91,0.01,,,0.05,meteohub,2013-06-29 19:18:00,
2013-06-29 14:23:00,68.9,66.2,29.59,North,5,4.0,8.0,91,0.01,,,0.05,meteohub,2013-06-29 19:23:00,
2013-06-29 14:28:00,69.3,66.2,29.60,NNW,338,6.0,8.0,90,0.01,,,0.05,meteohub,2013-06-29 19:28:00,
2013-06-29 14:33:00,69.6,66.2,29.60,NNE,19,5.0,8.0,89,0.01,,,0.05,meteohub,2013-06-29 19:33:00,
2013-06-29 14:39:00,69.6,65.8,29.59,NE,35,6.0,8.0,88,0.00,,,0.05,meteohub,2013-06-29 19:39:00,
2013-06-29 14:44:00,69.6,65.7,29.59,North,5,8.0,8.0,87,0.00,,,0.05,meteohub,2013-06-29 19:44:00,
2013-06-29 14:49:00,70.0,66.0,29.59,North,10,2.0,8.0,87,0.00,,,0.05,meteohub,2013-06-29 19:49:00,
2013-06-29 14:54:00,70.3,66.2,29.59,NNE,30,5.0,9.0,87,0.00,,,0.05,meteohub,2013-06-29 19:54:00,
2013-06-29 14:59:00,70.7,66.4,29.59,NNE,26,7.0,9.0,86,0.00,,,0.05,meteohub,2013-06-29 19:59:00,
2013-06-29 15:04:00,70.7,66.4,29.59,North,11,1.0,9.0,86,0.00,,,0.05,meteohub,2013-06-29 20:04:00,
2013-06-29 15:09:00,70.5,65.5,29.59,North,0,3.0,9.0,84,0.00,,,0.05,meteohub,2013-06-29 20:09:00,
2013-06-29 15:14:00,70.5,65.5,29.59,NNE,16,5.0,9.0,84,0.00,,,0.05,meteohub,2013-06-29 20:14:00,
2013-06-29 15:19:00,70.9,65.8,29.59,NNW,338,6.0,9.0,84,0.00,,,0.05,meteohub,2013-06-29 20:19:00,
2013-06-29 15:24:00,70.9,65.8,29.59,North,355,7.0,9.0,84,0.00,,,0.05,meteohub,2013-06-29 20:24:00,
2013-06-29 15:29:00,71.1,65.7,29.60,NE,34,5.0,8.0,83,0.00,,,0.05,meteohub,2013-06-29 20:29:00,
2013-06-29 15:34:00,71.1,65.7,29.59,North,355,5.0,8.0,83,0.00,,,0.05,meteohub,2013-06-29 20:34:00,
2013-06-29 15:39:00,71.4,66.0,29.59,North,5,2.0,7.0,83,0.00,,,0.05,meteohub,2013-06-29 20:39:00,
2013-06-29 15:44:00,71.8,65.7,29.59,North,10,4.0,7.0,81,0.00,,,0.05,meteohub,2013-06-29 20:44:00,
2013-06-29 15:49:00,71.8,65.7,29.59,North,9,3.0,7.0,81,0.00,,,0.05,meteohub,2013-06-29 20:49:00,
2013-06-29 15:54:00,72.0,65.8,29.59,NNE,22,6.0,10.0,81,0.00,,,0.05,meteohub,2013-06-29 20:54:00,
2013-06-29 16:00:00,72.0,65.1,29.59,NNE,29,4.0,10.0,79,0.00,,,0.05,meteohub,2013-06-29 21:00:00,
2013-06-29 16:05:00,72.1,64.9,29.59,North,350,1.0,10.0,78,0.00,,,0.05,meteohub,2013-06-29 21:05:00,
2013-06-29 16:10:00,72.7,65.8,29.59,NNE,33,2.0,8.0,79,0.00,,,0.05,meteohub,2013-06-29 21:10:00,
2013-06-29 16:15:00,73.0,65.8,29.59,NNW,338,1.0,8.0,78,0.00,,,0.05,meteohub,2013-06-29 21:15:00,
2013-06-29 16:20:00,73.6,65.5,29.59,North,355,0.0,6.0,76,0.00,,,0.05,meteohub,2013-06-29 21:20:00,
2013-06-29 16:25:00,73.6,65.5,29.59,NNW,339,3.0,6.0,76,0.00,,,0.05,meteohub,2013-06-29 21:25:00,
2013-06-29 16:30:00,73.9,65.5,29.59,North,350,3.0,7.0,75,0.00,,,0.05,meteohub,2013-06-29 21:30:00,
2013-06-29 16:35:00,74.1,65.7,29.59,NNE,24,1.0,10.0,75,0.00,,,0.05,meteohub,2013-06-29 21:35:00,
2013-06-29 16:40:00,73.9,65.1,29.59,North,355,5.0,10.0,74,0.00,,,0.05,meteohub,2013-06-29 21:40:00,
2013-06-29 16:45:00,74.1,65.7,29.59,NNE,16,1.0,10.0,75,0.00,,,0.05,meteohub,2013-06-29 21:45:00,
2013-06-29 16:50:00,73.9,65.1,29.59,North,355,1.0,6.0,74,0.00,,,0.05,meteohub,2013-06-29 21:50:00,
2013-06-29 16:55:00,73.8,64.9,29.60,NNW,347,2.0,6.0,74,0.00,,,0.05,meteohub,2013-06-29 21:55:00,
2013-06-29 17:00:00,73.4,64.9,29.60,NW,323,3.0,6.0,75,0.00,,,0.05,meteohub,2013-06-29 22:00:00,
2013-06-29 17:05:00,73.2,65.1,29.59,NNW,335,7.0,7.0,76,0.00,,,0.05,meteohub,2013-06-29 22:05:00,
2013-06-29 17:10:00,73.0,64.9,29.60,North,11,4.0,8.0,76,0.00,,,0.05,meteohub,2013-06-29 22:10:00,
2013-06-29 17:16:00,72.9,65.3,29.60,NE,36,3.0,8.0,77,0.00,,,0.05,meteohub,2013-06-29 22:16:00,
2013-06-29 17:21:00,72.7,64.8,29.60,ENE,60,4.0,8.0,76,0.00,,,0.05,meteohub,2013-06-29 22:21:00,
2013-06-29 17:26:00,72.7,64.8,29.59,East,81,4.0,8.0,76,0.00,,,0.05,meteohub,2013-06-29 22:26:00,
2013-06-29 17:31:00,72.9,64.4,29.60,NNE,16,2.0,7.0,75,0.00,,,0.05,meteohub,2013-06-29 22:31:00,
2013-06-29 17:36:00,73.0,64.9,29.60,ENE,64,3.0,7.0,76,0.00,,,0.05,meteohub,2013-06-29 22:36:00,
2013-06-29 17:41:00,73.0,64.9,29.60,NE,44,2.0,7.0,76,0.00,,,0.05,meteohub,2013-06-29 22:41:00,
2013-06-29 17:46:00,72.9,64.4,29.60,NNE,32,4.0,7.0,75,0.00,,,0.05,meteohub,2013-06-29 22:46:00,
2013-06-29 17:51:00,72.9,64.8,29.60,NNE,17,6.0,8.0,76,0.00,,,0.05,meteohub,2013-06-29 22:51:00,
2013-06-29 17:56:00,72.7,64.8,29.60,NNE,26,7.0,8.0,76,0.00,,,0.05,meteohub,2013-06-29 22:56:00,
2013-06-29 18:01:00,72.5,64.6,29.60,NNW,344,9.0,10.0,76,0.00,,,0.05,meteohub,2013-06-29 23:01:00,
2013-06-29 18:06:00,72.5,64.6,29.61,NNE,16,7.0,10.0,76,0.00,,,0.05,meteohub,2013-06-29 23:06:00,
2013-06-29 18:11:00,72.1,64.9,29.61,North,355,7.0,10.0,78,0.00,,,0.05,meteohub,2013-06-29 23:11:00,
2013-06-29 18:16:00,71.8,64.9,29.61,North,5,10.0,11.0,79,0.00,,,0.05,meteohub,2013-06-29 23:16:00,
2013-06-29 18:21:00,71.2,64.8,29.61,North,10,5.0,11.0,80,0.00,,,0.05,meteohub,2013-06-29 23:21:00,
2013-06-29 18:26:00,71.1,64.6,29.60,North,0,4.0,10.0,80,0.00,,,0.05,meteohub,2013-06-29 23:26:00,
2013-06-29 18:32:00,70.9,64.4,29.60,NNE,13,7.0,10.0,80,0.00,,,0.05,meteohub,2013-06-29 23:32:00,
2013-06-29 18:37:00,70.2,64.4,29.60,NNW,348,7.0,11.0,82,0.00,,,0.05,meteohub,2013-06-29 23:37:00,
2013-06-29 18:42:00,69.3,64.2,29.61,North,11,4.0,12.0,84,0.00,,,0.05,meteohub,2013-06-29 23:42:00,
2013-06-29 18:47:00,68.7,64.0,29.61,North,11,6.0,12.0,85,0.00,,,0.05,meteohub,2013-06-29 23:47:00,
2013-06-29 18:52:00,68.5,64.2,29.61,NE,40,4.0,12.0,86,0.00,,,0.05,meteohub,2013-06-29 23:52:00,
2013-06-29 18:57:00,68.5,64.2,29.61,North,5,7.0,9.0,86,0.00,,,0.05,meteohub,2013-06-29 23:57:00,
2013-06-29 19:02:00,68.7,64.0,29.61,NE,36,6.0,10.0,85,0.00,,,0.05,meteohub,2013-06-30 00:02:00,
2013-06-29 19:07:00,68.7,63.7,29.62,ENE,70,6.0,10.0,84,0.00,,,0.05,meteohub,2013-06-30 00:07:00,
2013-06-29 19:12:00,68.7,63.0,29.62,NNE,22,7.0,9.0,82,0.00,,,0.05,meteohub,2013-06-30 00:12:00,
2013-06-29 19:17:00,68.7,62.2,29.62,NE,41,5.0,9.0,80,0.00,,,0.05,meteohub,2013-06-30 00:17:00,
2013-06-29 19:22:00,68.7,62.2,29.62,ENE,59,1.0,9.0,80,0.00,,,0.05,meteohub,2013-06-30 00:22:00,
2013-06-29 19:27:00,68.5,62.1,29.62,ENE,65,1.0,9.0,80,0.00,,,0.05,meteohub,2013-06-30 00:27:00,
2013-06-29 19:32:00,68.5,62.4,29.62,ENE,68,8.0,9.0,81,0.00,,,0.05,meteohub,2013-06-30 00:32:00,
2013-06-29 19:37:00,68.2,62.8,29.62,NE,55,6.0,10.0,83,0.00,,,0.05,meteohub,2013-06-30 00:37:00,
2013-06-29 19:42:00,68.0,62.6,29.62,NE,42,4.0,10.0,83,0.00,,,0.05,meteohub,2013-06-30 00:42:00,
2013-06-29 19:47:00,67.6,62.6,29.63,North,355,7.0,11.0,84,0.00,,,0.05,meteohub,2013-06-30 00:47:00,
2013-06-29 19:52:00,67.6,63.0,29.63,NNE,25,2.0,11.0,85,0.00,,,0.05,meteohub,2013-06-30 00:52:00,
2013-06-29 19:57:00,67.5,63.1,29.63,NE,53,7.0,11.0,86,0.00,,,0.05,meteohub,2013-06-30 00:57:00,
2013-06-29 20:02:00,66.9,63.0,29.63,ENE,63,5.0,10.0,87,0.00,,,0.05,meteohub,2013-06-30 01:02:00,
2013-06-29 20:07:00,66.6,63.0,29.64,ENE,59,2.0,10.0,88,0.00,,,0.05,meteohub,2013-06-30 01:07:00,
2013-06-29 20:12:00,66.4,62.8,29.64,ENE,57,3.0,10.0,88,0.00,,,0.05,meteohub,2013-06-30 01:12:00,
2013-06-29 20:17:00,66.2,62.8,29.64,NE,41,5.0,8.0,89,0.00,,,0.05,meteohub,2013-06-30 01:17:00,
2013-06-29 20:22:00,66.0,62.6,29.64,NNE,22,0.0,8.0,89,0.01,,,0.06,meteohub,2013-06-30 01:22:00,
2013-06-29 20:27:00,65.8,62.4,29.64,North,350,0.0,7.0,89,0.01,,,0.06,meteohub,2013-06-30 01:27:00,
2013-06-29 20:32:00,65.8,62.4,29.65,NNE,28,3.0,6.0,89,0.01,,,0.06,meteohub,2013-06-30 01:32:00,
2013-06-29 20:37:00,65.8,62.4,29.65,North,11,6.0,6.0,89,0.01,,,0.06,meteohub,2013-06-30 01:37:00,
2013-06-29 20:42:00,65.8,62.8,29.65,North,0,1.0,6.0,90,0.01,,,0.06,meteohub,2013-06-30 01:42:00,
2013-06-29 20:47:00,65.8,62.8,29.65,North,0,0.0,6.0,90,0.01,,,0.06,meteohub,2013-06-30 01:47:00,
2013-06-29 20:52:00,66.0,63.0,29.65,North,0,2.0,6.0,90,0.01,,,0.06,meteohub,2013-06-30 01:52:00,
2013-06-29 20:57:00,65.8,62.8,29.65,North,11,4.0,6.0,90,0.01,,,0.06,meteohub,2013-06-30 01:57:00,
2013-06-29 21:02:00,66.0,63.3,29.65,North,5,5.0,6.0,91,0.01,,,0.06,meteohub,2013-06-30 02:02:00,
2013-06-29 21:07:00,66.0,63.3,29.66,North,355,7.0,7.0,91,0.01,,,0.06,meteohub,2013-06-30 02:07:00,
2013-06-29 21:12:00,66.0,63.3,29.66,North,0,8.0,9.0,91,0.01,,,0.06,meteohub,2013-06-30 02:12:00,
2013-06-29 21:17:00,65.8,63.1,29.66,North,5,6.0,9.0,91,0.01,,,0.06,meteohub,2013-06-30 02:17:00,
2013-06-29 21:22:00,65.8,63.1,29.67,NNE,25,3.0,9.0,91,0.00,,,0.06,meteohub,2013-06-30 02:22:00,
2013-06-29 21:27:00,65.8,63.1,29.67,ENE,59,4.0,9.0,91,0.00,,,0.06,meteohub,2013-06-30 02:27:00,
2013-06-29 21:32:00,65.8,63.1,29.67,North,11,3.0,12.0,91,0.00,,,0.06,meteohub,2013-06-30 02:32:00,
2013-06-29 21:37:00,65.8,63.1,29.67,NNE,17,0.0,12.0,91,0.00,,,0.06,meteohub,2013-06-30 02:37:00,
2013-06-29 21:42:00,65.8,63.1,29.67,North,11,5.0,9.0,91,0.00,,,0.06,meteohub,2013-06-30 02:42:00,
2013-06-29 21:47:00,65.8,63.1,29.68,NNE,22,1.0,9.0,91,0.00,,,0.06,meteohub,2013-06-30 02:47:00,
2013-06-29 21:52:00,65.8,63.1,29.68,NNE,14,1.0,7.0,91,0.00,,,0.06,meteohub,2013-06-30 02:52:00,
2013-06-29 21:57:00,65.8,63.5,29.68,NE,34,3.0,6.0,92,0.00,,,0.06,meteohub,2013-06-30 02:57:00,
2013-06-29 22:02:00,65.8,63.1,29.68,NE,42,5.0,7.0,91,0.00,,,0.06,meteohub,2013-06-30 03:02:00,
2013-06-29 22:07:00,65.7,63.0,29.68,North,10,5.0,7.0,91,0.00,,,0.06,meteohub,2013-06-30 03:07:00,
2013-06-29 22:12:00,65.7,63.0,29.68,NNE,24,6.0,8.0,91,0.00,,,0.06,meteohub,2013-06-30 03:12:00,
2013-06-29 22:17:00,65.7,63.0,29.68,NNE,31,7.0,8.0,91,0.00,,,0.06,meteohub,2013-06-30 03:17:00,
2013-06-29 22:21:00,65.7,63.0,29.68,NNE,28,1.0,8.0,91,0.00,,,0.06,meteohub,2013-06-30 03:21:00,
2013-06-29 22:26:00,65.7,63.0,29.68,NNE,12,1.0,8.0,91,0.00,,,0.06,meteohub,2013-06-30 03:26:00,
2013-06-29 22:31:00,65.7,63.3,29.68,North,351,2.0,8.0,92,0.00,,,0.06,meteohub,2013-06-30 03:31:00,
2013-06-29 22:36:00,65.7,63.0,29.68,NNE,12,2.0,8.0,91,0.00,,,0.06,meteohub,2013-06-30 03:36:00,
2013-06-29 22:41:00,65.5,63.1,29.68,NNE,30,2.0,7.0,92,0.00,,,0.06,meteohub,2013-06-30 03:41:00,
2013-06-29 22:46:00,65.5,63.1,29.68,North,11,1.0,7.0,92,0.00,,,0.06,meteohub,2013-06-30 03:46:00,
2013-06-29 22:51:00,65.5,63.1,29.68,NNE,32,2.0,6.0,92,0.00,,,0.06,meteohub,2013-06-30 03:51:00,
2013-06-29 22:56:00,65.5,63.1,29.68,NNE,19,0.0,6.0,92,0.00,,,0.06,meteohub,2013-06-30 03:56:00,
2013-06-29 23:01:00,65.5,63.1,29.68,North,5,0.0,6.0,92,0.00,,,0.06,meteohub,2013-06-30 04:01:00,
2013-06-29 23:02:00,65.5,63.1,29.68,NNE,33,2.0,6.0,92,0.00,,,0.06,meteohub,2013-06-30 04:02:00,
2013-06-29 23:04:00,65.5,63.1,29.68,NNE,16,2.0,6.0,92,0.00,,,0.06,meteohub,2013-06-30 04:04:00,
2013-06-29 23:06:00,65.5,63.1,29.68,North,5,0.0,6.0,92,0.00,,,0.06,meteohub,2013-06-30 04:06:00,
2013-06-29 23:11:00,65.5,63.1,29.68,North,5,4.0,4.0,92,0.00,,,0.06,meteohub,2013-06-30 04:11:00,
2013-06-29 23:16:00,65.5,63.1,29.68,NNE,22,6.0,6.0,92,0.00,,,0.06,meteohub,2013-06-30 04:16:00,
2013-06-29 23:21:00,65.5,63.1,29.68,NNW,344,1.0,8.0,92,0.00,,,0.06,meteohub,2013-06-30 04:21:00,
2013-06-29 23:26:00,65.3,62.6,29.68,NNE,30,4.0,8.0,91,0.00,,,0.06,meteohub,2013-06-30 04:26:00,
2013-06-29 23:32:00,65.1,62.4,29.68,North,0,2.0,8.0,91,0.00,,,0.06,meteohub,2013-06-30 04:32:00,
2013-06-29 23:37:00,65.3,62.6,29.68,North,5,1.0,7.0,91,0.00,,,0.06,meteohub,2013-06-30 04:37:00,
2013-06-29 23:42:00,65.1,62.4,29.68,NNE,19,0.0,7.0,91,0.00,,,0.06,meteohub,2013-06-30 04:42:00,
2013-06-29 23:47:00,65.3,62.6,29.68,NE,34,0.0,7.0,91,0.00,,,0.06,meteohub,2013-06-30 04:47:00,
2013-06-29 23:52:00,65.3,62.6,29.68,North,5,4.0,6.0,91,0.00,,,0.06,meteohub,2013-06-30 04:52:00,
2013-06-29 23:57:00,65.3,62.6,29.68,NNE,13,0.0,6.0,91,0.00,,,0.06,meteohub,2013-06-30 04:57:00,